Herzlich willkommen!

Am freundlichen Bodensee-Flugplatz zwischen Schwarzwald, Rhein und Alpen.

Aktuelles

05.07.2018
Neue Sichtflugkarte EDTZ
Bitte beachten Sie die neuen An- und Abflugverfahren, veröffentlicht am 5. Juli 2018. Der Gegenanflug Piste 30 wurde verlängert bis kurz vor die neue Rheinbrücke. Direktabflüge Piste 12 sind nicht mehr gestattet. Abdrehen nach Norden bei Abflügen nach Westen erst zwischen Hegne und Allensbach. Hubschrauberstart vom jeweiligen RWY-Beginn mit maximaler Steigrate. Bei Direktanflug/ Direktabflug sind Flüge unterhalb 2000 ft AGL so kurz wie möglich zu halten. Um Beschwerden zu vermeiden, bitten wir Sie, sich an die veröffentlichten Verfahren zu halten.
— Flugleitung EDTZ
12.08.2018
NEUE FREQUENZ 124,355
Ab sofort hat Konstanz Info die neue 8,33 kHz Frequenz 124,355
— Flugleitung EDTZ

Live am Platz

Die Bilder unserer Webcams werden alle 5 Minuten aktualisiert.

Sonnenaufgang:

04:24 UTC / 06:24 Lokal

Sonnenuntergang:

18:28 UTC / 20:28 Lokal

METAR (20.08.2018 13:50 UTC):

EDNY 201350Z 24009KT 9999 FEW061 29/15 Q1019
VFR

TAF (20.08.2018 11:00 UTC):

TAF EDNY 201100Z 2012/2112 23006KT CAVOK BECMG 2016/2018 04004KT BECMG 2110/2112 24005KT

Alle Angaben unverbindlich und ohne Gewähr. Zeiten genähert.

Für den Verkehrslandeplatz Konstanz werden keine offiziellen Wetterinformationen herausgegeben. Daher werden zur Orientierung Daten des nahegelegenen Flughafens Friedrichshafen dargestellt.